Regional Weather Roundup
Issued by NWS Austin/San Antonio, TX

Home | Current Version | Previous Version | Text Only | Print | Product List | Glossary On
Versions: 1 2 3 4 5 6 7 8 9 10 11 12 13 14 15 16 17 18 19 20 21 22 23 24 25 26 27 28 29 30 31 32 33 34 35 36 37 38 39 40 41 42 43 44 45 46 47 48 49 50
000
ASUS44 KEWX 222302
RWREWX
SOUTH TEXAS REGIONAL WEATHER ROUNDUP
NATIONAL WEATHER SERVICE AUSTIN/SAN ANTONIO TX
600 PM CDT SAT JUL 22 2017

NOTE: "FAIR" INDICATED FEW OR NO CLOUDS BELOW 12,000 FEET WITH NO
SIGNIFICANT WEATHER AND/OR OBSTRUCTIONS TO VISIBILITY.

* - THESE STATIONS ARE NOT NWS OR FAA STATIONS...AND ARE NOT SUBJECT
    TO NWS AND FAA QUALITY CONTROL.

TXZ171-172-183>190-230000-
TEXAS HILL COUNTRY AND EDWARDS PLATEAU

CITY           SKY/WX    TMP DP  RH WIND       PRES   REMARKS
JUNCTION       MOSUNNY   99  60  27 SE14G20   29.88F HX  99
*LLANO           N/A    N/A N/A N/A MISG        N/A
BURNET         SUNNY    100  59  25 SE8       29.90F HX 100
*HORSESHOE BAY SUNNY    100  58  24 CALM      29.86F HX 100
*KERRVILLE       N/A     97  64  33 S10       29.90F HX  99
*FREDERICKSBRG MOSUNNY   97  55  25 S10       29.90F HX  95
*ROCKSPRINGS   MOSUNNY   97  61  30 S9        29.96F HX  97
*BOERNE STAGE  SUNNY     95  59  30 CALM      29.91S HX  94
*CASTROVILLE   SUNNY     99  58  25 SE5       29.86F HX  98
HONDO          MOSUNNY  101  63  28 SE9       29.85F HX 103
*UVALDE        MOSUNNY   99  64  30 SE7       29.85F HX 101
DEL RIO        SUNNY    100  63  29 SE12      29.82F HX 102
LAUGHLIN AFB   NOT AVBL
CARRIZO SPRGS  SUNNY    104  61  24 SE6       29.80F HX 105
*EAGLE PASS      N/A    100  61  27 SE5G15    29.82S HX 101
$$

TXZ173-191>194-202-209-217>225-228-230000-
CENTRAL AND SOUTH CENTRAL TEXAS

CITY           SKY/WX    TMP DP  RH WIND       PRES   REMARKS
GEORGETOWN     MOSUNNY  100  63  28 SE15      29.84F HX 102
AUSTIN/BERGSTM PTSUNNY  100  64  30 SE9       29.84F HX 102
AUSTIN/MABRY   SUNNY    101  63  28 MISG      29.86F HX 103
*AUSTIN/EXEC     N/A     99  66  34 CALM      29.86F HX 102
*LAGO VISTA    SUNNY     99  58  25 SE6       29.90S HX  98
SAN MARCOS     MOSUNNY   99  64  32 SE12      29.87F HX 101
NEW BRAUNFELS  MOSUNNY  100  64  30 S12G20    29.84F HX 102
RANDOLPH AFB   SUNNY     99  60  27 S7        29.86F HX  99
PT SAN ANTONIO MOSUNNY   99  64  31 SE12      29.84F HX 102
SAN ANTONIO    MOSUNNY  100  63  29 S10       29.86F HX 102
STINSON FIELD  MOSUNNY  102  64  28 SE12G18   29.83F HX 105
*LA GRANGE     PTSUNNY   98  72  42 SE9       29.85S HX 106
*GIDDINGS      PTSUNNY   97  64  33 S10       29.87F HX  99
*GONZALES      PTSUNNY   99  70  39 S10G16    29.85F HX 106
$$

TXZ163>164-176>182-195>201-210>213-226-227-235-230000-
SOUTHEAST TEXAS

CITY           SKY/WX    TMP DP  RH WIND       PRES   REMARKS
COLLEGE STN    PTSUNNY   97  68  38 SE7       29.86F HX 102
*BRYAN         PTSUNNY   95  68  41 SE8       29.88F HX  99
*CALDWELL      NOT AVBL
*CROCKETT      PTSUNNY   95  72  46 SE7       29.92S HX 103
*BRENHAM       PTSUNNY   94  69  44 S10G16    29.88F HX  99
HUNTSVILLE     MOSUNNY   91  73  55 E8        29.89F HX  99
CONROE         CLOUDY    86  73  65 S9        29.91F HX  93
HOUSTON BUSH   TSTM      81  74  79 W13       29.93R
HOUSTON HOBBY  PTSUNNY   90  73  57 S12       29.90F THUNDER HX  98
*HOUSTON SW AP PTSUNNY   87  76  68 S6        29.91F HX  97
PEARLAND       PTSUNNY   91  73  55 S10       29.92F HX  99
HOUSTON HOOKS  TSTM      76  74  93 SE6       29.93F FOG
ELLINGTON FLD  PTSUNNY   91  73  55 S15       29.92F HX 100
SUGAR LAND     TSTM      82  76  81 CALM      29.92S VSB 3/4
*HOUSTON EXEC  PTSUNNY   82  70  65 SW9       29.91S
*CLEVELAND MUN PTSUNNY   88  78  72 SE9       29.92F HX 100
*WHARTON       PTSUNNY   87  67  50 S14       29.91F
*COLUMBUS      FAIR      92  74  54 S12G21    29.89F HX 101
*EAGLE LAKE    MOCLDY    89  77  67 SE13      29.89F HX 102
$$

TXZ214>216-236>238-230000-
THE UPPER TEXAS COAST

CITY           SKY/WX    TMP DP  RH WIND       PRES   REMARKS
*ORANGE        RAIN      75  74  96 CALM      29.97S
PORT ARTHUR    LGT RAIN  77  74  90 E7        29.94S
GALVESTON      MOSUNNY   87  79  76 S15       29.94S HX 101
ANGLETON       SUNNY     88  76  67 S14       29.92S HX  99
*BAY CITY      PTSUNNY   90  76  61 S13       29.92S HX 101
PALACIOS       PTSUNNY   85  75  72 S10G20    29.91F HX  93
$$

TXZ229>234-239>247-230000-
TEXAS COASTAL BEND AND RIO GRANDE PLAINS

CITY           SKY/WX    TMP DP  RH WIND       PRES   REMARKS
VICTORIA       PTSUNNY   92  73  53 S17       29.89F HX 100
*BEEVILLE      PTSUNNY   93  76  56 SE20G25   29.86F HX 106
ROCKPORT       CLOUDY    90  76  63 SE16G24   29.88F HX 101
*PORT ARANSAS  PTSUNNY   87  76  69 S16G22    29.89F HX  97
*PORT LAVACA   PTSUNNY   89  73  60 S14       29.90F HX  96
*INGLESIDE     CLOUDY    90  77  65 MISG      29.88F HX 103
CORPUS CHRISTI CLOUDY    90  76  63 SE20G28   29.87F HX 101
CORPUS NAS     CLOUDY    90  78  68 SE23      29.87F HX 104
*ROBSTOWN      CLOUDY    94  74  51 SE21G28   29.86F HX 104
ALICE          CLOUDY    95  73  48 SE18G26   29.83F HX 104
KINGSVILLE NAS CLOUDY    94  78  60 SE21G33   29.84F HX 110
COTULLA        MOSUNNY  103  56  21 SE16      29.80F HX 102
*FAITH RANCH   SUNNY    104  57  21 S10G18    29.81F HX 103
LAREDO         MOSUNNY  106  63  24 S9          N/A  HX 109
$$

TXZ248>255-230000-
DEEP SOUTH TEXAS

CITY           SKY/WX    TMP DP  RH WIND       PRES   REMARKS
BROWNSVILLE    SUNNY     90  74  59 S22G28    29.88F HX  99
PORT ISABEL    SUNNY     93  74  53 S20G28    29.87F HX 103
*SOUTH PADRE   NOT AVBL
HARLINGEN      SUNNY     95  71  45 SE24G31   29.85F HX 102
*HEBBRONVILLE  SUNNY     98  61  28 SE13G20   29.83F HX  99
MCALLEN        SUNNY     99  71  40 SE25      29.84F HX 107
*WESLACO       SUNNY     96  68  40 S16G25    29.84F HX 100
FALFURRIAS     CLOUDY    99  65  32 S14G21    29.82F HX 102
EDINBURG       SUNNY     99  63  30 SE18      29.84F HX 101
*ZAPATA        MOSUNNY  104  56  20 S10       29.79F HX 103
$$

TXZ213>215-236>238-242>244-246-247-251-254-255-230000-
CMAN STATIONS

STATION/POSITION TIME  TEMP    WIND        PRES    WAVE
                       AIR SEA DIR/SP/G            HT/PER
                 (UTC) (F)     (DEG/KT/KT) (MB)    (FT/S)
SABINE PASS      2230   81 90  120/  2/  3 1015.9
SEA RIM ST PARK  2200   84     200/ 10/ 11 1014.9
NORTH JETTY/GLS  2230      89  170/ 12/ 13 1013.6
EAGLE POINT      2230   87 90  210/ 13/ 16 1013.7
MORGANS POINT    2230   87 88  150/  7/ 13 1013.1
MISSION/ARANSAS  2200          160/ 19     1013.0
PORT O`CONNOR    2230   85     180/ 16/ 18 1012.4
PORT ARANSAS     2200   85 88  140/ 19/ 21 1012.8
MALAQUITE BEACH  2230   85 87  130/ 23/ 26 1011.2
BAFFIN BAY       2230   86 90              1011.4
PORT ISABEL      2230   87 86              1012.3
$$



USA.gov is the U.S. government's official web portal to all federal, state and local government web resources and services.